This is the latest recevied weather packets stored in our database for station/object DO7CRZ-10. If no packets are shown the sender has not sent any weather packets the latest 10 day(s).
| Time | Temp. | Humidity | Pressure | Rain* | Wind** | Luminosity | Snow |
|---|---|---|---|---|---|---|---|
| 1777747634 | 22.22° C | 23% | 1017 hPa | - | - | - | - |
| 1777745888 | 22.78° C | 23% | 1017 hPa | - | - | - | - |
| 1777744142 | 25° C | 25% | 1017 hPa | - | - | - | - |
| 1777742396 | 26.11° C | 25% | 1017 hPa | - | - | - | - |
| 1777740650 | 26.67° C | 24% | 1017 hPa | - | - | - | - |
| 1777738904 | 27.78° C | 25% | 1017 hPa | - | - | - | - |
| 1777737159 | 28.89° C | 25% | 1018 hPa | - | - | - | - |
| 1777735413 | 28.33° C | 25% | 1018 hPa | - | - | - | - |
| 1777733667 | 29.44° C | 25% | 1018 hPa | - | - | - | - |
| 1777731921 | 29.44° C | 27% | 1019 hPa | - | - | - | - |
| 1777730175 | 30.56° C | 28% | 1019 hPa | - | - | - | - |
| 1777728430 | 30° C | 25% | 1019 hPa | - | - | - | - |
| 1777726684 | 29.44° C | 27% | 1020 hPa | - | - | - | - |
| 1777724938 | 27.22° C | 27% | 1020 hPa | - | - | - | - |
| 1777723192 | 27.22° C | 32% | 1021 hPa | - | - | - | - |
| 1777721446 | 27.22° C | 29% | 1021 hPa | - | - | - | - |
| 1777719700 | 26.11° C | 31% | 1021 hPa | - | - | - | - |
| 1777717955 | 27.78° C | 28% | 1022 hPa | - | - | - | - |
| 1777716209 | 27.22° C | 30% | 1022 hPa | - | - | - | - |
| 1777714463 | 25.56° C | 28% | 1022 hPa | - | - | - | - |
| 1777712717 | 25° C | 29% | 1023 hPa | - | - | - | - |
| 1777710971 | 23.89° C | 31% | 1023 hPa | - | - | - | - |
| 1777709225 | 23.33° C | 35% | 1023 hPa | - | - | - | - |
| 1777707480 | 21.67° C | 37% | 1023 hPa | - | - | - | - |
| 1777705734 | 20° C | 39% | 1023 hPa | - | - | - | - |
* Rain since midnight (hover to see other rain measurements)
** Current wind speed in m/s (hover to see current wind gust speed)